Wetterdaten: Woche 01.08.16 - 07.08.16 (KW31)
Datum Zeit Temp. I. Temp. A. Feuchte I. Feuchte A. Luftdruck Regen Wind Richtung Sonnenschein UV Solar Taupunkt Windchill Windben
01.08.2016 00:00 25,7 C 15,6 C 62 % 91 % 1014,5 hPa 0,0 l/m 1,7 km/h (1 Bft) N 0,00 h 0,0 UV-I 0 W/m 14,2 C 15,6 C 5,0 km/h (1 Bft)
01.08.2016 01:00 25,9 C 15,1 C 62 % 92 % 1014,9 hPa 0,0 l/m 0,9 km/h (0 Bft) NW 0,00 h 0,0 UV-I 0 W/m 13,8 C 15,1 C 3,4 km/h (1 Bft)
01.08.2016 02:00 26,0 C 14,4 C 62 % 91 % 1015,2 hPa 0,0 l/m 1,7 km/h (1 Bft) NW 0,00 h 0,0 UV-I 0 W/m 12,9 C 14,4 C 5,0 km/h (1 Bft)
01.08.2016 03:00 25,7 C 13,4 C 61 % 90 % 1015,8 hPa 0,0 l/m 0,0 km/h (0 Bft) NW 0,00 h 0,0 UV-I 0 W/m 11,9 C 13,4 C 0,2 km/h (0 Bft)
01.08.2016 04:00 25,6 C 12,4 C 60 % 92 % 1016,1 hPa 0,0 l/m 0,0 km/h (0 Bft) N 0,00 h 0,0 UV-I 0 W/m 11,1 C 12,4 C 0,0 km/h (0 Bft)
01.08.2016 05:00 25,5 C 11,5 C 59 % 93 % 1016,5 hPa 0,0 l/m 0,0 km/h (0 Bft) N 0,00 h 0,0 UV-I 6 W/m 10,4 C 11,5 C 0,0 km/h (0 Bft)
01.08.2016 06:00 25,4 C 10,9 C 58 % 94 % 1016,9 hPa 0,0 l/m 0,0 km/h (0 Bft) N 0,00 h 0,0 UV-I 18 W/m 10,0 C 10,9 C 0,0 km/h (0 Bft)
01.08.2016 07:00 25,3 C 12,1 C 58 % 94 % 1017,4 hPa 0,0 l/m 0,0 km/h (0 Bft) N 0,62 h 0,6 UV-I 152 W/m 11,2 C 12,1 C 0,0 km/h (0 Bft)
01.08.2016 08:00 25,3 C 14,4 C 58 % 87 % 1018,1 hPa 0,0 l/m 0,2 km/h (0 Bft) S 0,65 h 1,2 UV-I 263 W/m 12,2 C 14,4 C 0,9 km/h (0 Bft)
01.08.2016 09:00 25,3 C 15,7 C 58 % 83 % 1018,3 hPa 0,0 l/m 2,9 km/h (1 Bft) W-SW 0,83 h 2,0 UV-I 357 W/m 12,7 C 15,6 C 6,8 km/h (2 Bft)
01.08.2016 10:00 25,2 C 16,9 C 57 % 75 % 1018,4 hPa 0,0 l/m 5,3 km/h (1 Bft) W-SW 0,98 h 3,8 UV-I 680 W/m 12,4 C 16,4 C 11,0 km/h (2 Bft)
01.08.2016 11:00 25,3 C 18,7 C 57 % 62 % 1018,6 hPa 0,0 l/m 5,8 km/h (2 Bft) W 1,00 h 5,0 UV-I 773 W/m 11,4 C 18,4 C 12,7 km/h (3 Bft)
01.08.2016 12:00 25,1 C 19,5 C 53 % 58 % 1018,5 hPa 0,0 l/m 3,8 km/h (1 Bft) NW 1,00 h 5,0 UV-I 675 W/m 11,0 C 19,3 C 8,9 km/h (2 Bft)
01.08.2016 13:00 25,1 C 19,9 C 52 % 55 % 1018,5 hPa 0,0 l/m 4,1 km/h (1 Bft) W 0,97 h 4,7 UV-I 561 W/m 10,7 C 19,7 C 9,2 km/h (2 Bft)
01.08.2016 14:00 25,1 C 20,1 C 51 % 54 % 1018,4 hPa 0,0 l/m 4,5 km/h (1 Bft) W-NW 0,92 h 3,6 UV-I 368 W/m 10,5 C 20,0 C 9,3 km/h (2 Bft)
01.08.2016 15:00 24,7 C 20,9 C 48 % 49 % 1018,3 hPa 0,0 l/m 6,4 km/h (2 Bft) W 0,98 h 4,2 UV-I 650 W/m 9,9 C 20,4 C 13,1 km/h (3 Bft)
01.08.2016 16:00 24,8 C 20,8 C 48 % 49 % 1018,1 hPa 0,0 l/m 3,9 km/h (1 Bft) W-NW 0,95 h 2,5 UV-I 396 W/m 9,7 C 20,7 C 8,5 km/h (2 Bft)
01.08.2016 17:00 24,9 C 20,3 C 48 % 46 % 1018,1 hPa 0,0 l/m 5,8 km/h (2 Bft) W 0,98 h 1,5 UV-I 268 W/m 8,3 C 20,0 C 11,7 km/h (2 Bft)
01.08.2016 18:00 25,0 C 19,6 C 49 % 51 % 1018,0 hPa 0,0 l/m 2,3 km/h (1 Bft) W 0,17 h 0,7 UV-I 129 W/m 9,0 C 19,6 C 5,8 km/h (2 Bft)
01.08.2016 19:00 25,1 C 18,8 C 49 % 57 % 1018,1 hPa 0,0 l/m 1,8 km/h (1 Bft) W-NW 0,00 h 0,5 UV-I 56 W/m 10,2 C 18,8 C 4,2 km/h (1 Bft)
01.08.2016 20:00 25,2 C 17,6 C 50 % 65 % 1018,4 hPa 0,0 l/m 0,1 km/h (0 Bft) W-NW 0,00 h 0,0 UV-I 20 W/m 10,9 C 17,6 C 0,5 km/h (0 Bft)
01.08.2016 21:00 25,4 C 15,1 C 51 % 79 % 1018,7 hPa 0,0 l/m 0,0 km/h (0 Bft) N 0,00 h 0,0 UV-I 0 W/m 11,5 C 15,1 C 0,0 km/h (0 Bft)
01.08.2016 22:00 25,3 C 13,3 C 51 % 86 % 1018,9 hPa 0,0 l/m 0,0 km/h (0 Bft) N 0,00 h 0,0 UV-I 0 W/m 11,0 C 13,3 C 0,0 km/h (0 Bft)
01.08.2016 23:00 25,0 C 12,1 C 50 % 91 % 1018,9 hPa 0,0 l/m 0,0 km/h (0 Bft) N 0,00 h 0,0 UV-I 0 W/m 10,6 C 12,1 C 0,0 km/h (0 Bft)
02.08.2016 00:00 25,3 C 11,2 C 52 % 92 % 1019,0 hPa 0,0 l/m 0,0 km/h (0 Bft) N 0,00 h 0,0 UV-I 0 W/m 10,0 C 11,2 C 0,0 km/h (0 Bft)
02.08.2016 01:00 25,1 C 10,4 C 52 % 93 % 1019,0 hPa 0,0 l/m 0,0 km/h (0 Bft) N 0,00 h 0,0 UV-I 0 W/m 9,3 C 10,4 C 0,0 km/h (0 Bft)
02.08.2016 02:00 25,0 C 9,9 C 52 % 94 % 1018,8 hPa 0,0 l/m 0,0 km/h (0 Bft) N 0,00 h 0,0 UV-I 0 W/m 8,9 C 9,9 C 0,0 km/h (0 Bft)
02.08.2016 03:00 25,0 C 9,9 C 53 % 94 % 1018,4 hPa 0,0 l/m 0,0 km/h (0 Bft) N 0,00 h 0,0 UV-I 0 W/m 9,0 C 9,9 C 0,0 km/h (0 Bft)
02.08.2016 04:00 25,0 C 10,1 C 54 % 94 % 1018,1 hPa 0,0 l/m 0,0 km/h (0 Bft) N 0,00 h 0,0 UV-I 0 W/m 9,1 C 10,1 C 0,0 km/h (0 Bft)
02.08.2016 05:00 24,9 C 10,4 C 54 % 94 % 1017,9 hPa 0,0 l/m 0,0 km/h (0 Bft) N 0,00 h 0,0 UV-I 15 W/m 9,4 C 10,4 C 0,0 km/h (0 Bft)
02.08.2016 06:00 24,9 C 10,9 C 54 % 95 % 1017,6 hPa 0,0 l/m 0,0 km/h (0 Bft) N 0,00 h 0,0 UV-I 37 W/m 10,1 C 10,9 C 0,0 km/h (0 Bft)
02.08.2016 07:00 24,8 C 12,1 C 55 % 95 % 1017,5 hPa 0,0 l/m 0,2 km/h (0 Bft) W-NW 0,00 h 0,0 UV-I 70 W/m 11,3 C 12,1 C 0,5 km/h (0 Bft)
02.08.2016 08:00 24,9 C 13,2 C 55 % 91 % 1017,6 hPa 0,0 l/m 0,2 km/h (0 Bft) NW 0,02 h 0,6 UV-I 77 W/m 11,8 C 13,2 C 0,6 km/h (0 Bft)
02.08.2016 09:00 25,0 C 14,1 C 55 % 89 % 1017,5 hPa 0,0 l/m 0,0 km/h (0 Bft) NW 0,00 h 0,8 UV-I 67 W/m 12,3 C 14,1 C 0,5 km/h (0 Bft)
02.08.2016 10:00 24,8 C 14,8 C 54 % 87 % 1017,5 hPa 0,0 l/m 2,0 km/h (1 Bft) W 0,60 h 1,4 UV-I 169 W/m 12,6 C 14,7 C 5,3 km/h (1 Bft)
02.08.2016 11:00 24,8 C 14,9 C 53 % 85 % 1017,7 hPa 0,0 l/m 1,0 km/h (0 Bft) S 0,00 h 1,0 UV-I 102 W/m 12,4 C 14,9 C 3,0 km/h (1 Bft)
02.08.2016 12:00 24,7 C 15,6 C 53 % 84 % 1017,3 hPa 0,0 l/m 2,4 km/h (1 Bft) SO 0,70 h 3,0 UV-I 353 W/m 12,9 C 15,5 C 5,0 km/h (1 Bft)
02.08.2016 13:00 24,9 C 17,7 C 53 % 74 % 1016,8 hPa 0,0 l/m 6,7 km/h (2 Bft) S-SW 1,00 h 4,0 UV-I 458 W/m 13,1 C 17,1 C 13,4 km/h (3 Bft)
02.08.2016 14:00 24,9 C 17,6 C 52 % 68 % 1016,8 hPa 0,0 l/m 7,2 km/h (2 Bft) SW 0,68 h 1,9 UV-I 202 W/m 11,6 C 16,7 C 15,1 km/h (3 Bft)
02.08.2016 15:00 24,8 C 16,5 C 51 % 74 % 1016,8 hPa 0,0 l/m 5,3 km/h (1 Bft) W-SW 0,03 h 0,8 UV-I 79 W/m 11,8 C 16,0 C 11,6 km/h (2 Bft)
02.08.2016 16:00 24,7 C 15,5 C 52 % 83 % 1016,7 hPa 0,0 l/m 2,6 km/h (1 Bft) W-SW 0,00 h 0,6 UV-I 50 W/m 12,6 C 15,4 C 7,0 km/h (2 Bft)
02.08.2016 17:00 25,1 C 14,8 C 53 % 91 % 1016,4 hPa 0,2 l/m 1,0 km/h (0 Bft) S 0,00 h 0,5 UV-I 44 W/m 13,3 C 14,8 C 4,0 km/h (1 Bft)
02.08.2016 18:00 25,2 C 14,7 C 53 % 94 % 1016,1 hPa 0,0 l/m 4,1 km/h (1 Bft) SW 0,00 h 0,0 UV-I 43 W/m 13,7 C 14,5 C 10,6 km/h (2 Bft)
02.08.2016 19:00 25,0 C 14,7 C 54 % 94 % 1016,0 hPa 0,2 l/m 2,4 km/h (1 Bft) SW 0,00 h 0,0 UV-I 19 W/m 13,8 C 14,5 C 7,4 km/h (2 Bft)
02.08.2016 20:00 25,0 C 14,7 C 54 % 95 % 1016,2 hPa 0,4 l/m 0,9 km/h (0 Bft) W-SW 0,00 h 0,0 UV-I 8 W/m 13,9 C 14,6 C 3,3 km/h (1 Bft)
02.08.2016 21:00 25,1 C 14,6 C 54 % 96 % 1016,6 hPa 0,0 l/m 0,4 km/h (0 Bft) W-SW 0,00 h 0,0 UV-I 0 W/m 14,0 C 14,6 C 2,2 km/h (1 Bft)
02.08.2016 22:00 25,1 C 14,6 C 55 % 96 % 1016,9 hPa 0,2 l/m 2,3 km/h (1 Bft) W-SW 0,00 h 0,0 UV-I 0 W/m 13,9 C 14,6 C 6,5 km/h (2 Bft)
02.08.2016 23:00 24,9 C 14,5 C 55 % 95 % 1017,3 hPa 0,0 l/m 3,6 km/h (1 Bft) W-SW 0,00 h 0,0 UV-I 0 W/m 13,7 C 14,3 C 9,2 km/h (2 Bft)
03.08.2016 00:00 24,8 C 14,5 C 55 % 95 % 1017,5 hPa 0,0 l/m 0,9 km/h (0 Bft) SW 0,00 h 0,0 UV-I 0 W/m 13,7 C 14,5 C 3,1 km/h (1 Bft)
03.08.2016 01:00 24,7 C 14,5 C 55 % 95 % 1017,3 hPa 0,0 l/m 0,1 km/h (0 Bft) S-SW 0,00 h 0,0 UV-I 0 W/m 13,7 C 14,5 C 0,8 km/h (0 Bft)
03.08.2016 02:00 24,7 C 14,5 C 56 % 96 % 1017,1 hPa 0,2 l/m 1,1 km/h (1 Bft) SW 0,00 h 0,0 UV-I 0 W/m 13,9 C 14,5 C 4,4 km/h (1 Bft)
03.08.2016 03:00 24,7 C 14,6 C 56 % 96 % 1016,7 hPa 0,0 l/m 0,9 km/h (0 Bft) SW 0,00 h 0,0 UV-I 0 W/m 13,9 C 14,6 C 3,7 km/h (1 Bft)
03.08.2016 04:00 24,7 C 14,7 C 57 % 96 % 1016,4 hPa 0,2 l/m 2,0 km/h (1 Bft) S 0,00 h 0,0 UV-I 0 W/m 14,0 C 14,7 C 6,0 km/h (2 Bft)
03.08.2016 05:00 24,6 C 14,7 C 57 % 97 % 1016,2 hPa 0,2 l/m 1,5 km/h (1 Bft) S 0,00 h 0,0 UV-I 0 W/m 14,2 C 14,7 C 4,8 km/h (1 Bft)
03.08.2016 06:00 24,7 C 14,9 C 57 % 97 % 1016,0 hPa 0,0 l/m 0,9 km/h (0 Bft) SW 0,00 h 0,0 UV-I 15 W/m 14,4 C 14,9 C 2,9 km/h (1 Bft)
03.08.2016 07:00 24,6 C 15,2 C 57 % 97 % 1015,8 hPa 0,0 l/m 2,7 km/h (1 Bft) S 0,00 h 0,0 UV-I 36 W/m 14,7 C 15,1 C 7,6 km/h (2 Bft)
03.08.2016 08:00 24,7 C 15,5 C 58 % 97 % 1015,6 hPa 0,0 l/m 2,9 km/h (1 Bft) S 0,00 h 0,6 UV-I 61 W/m 15,0 C 15,4 C 7,6 km/h (2 Bft)
03.08.2016 09:00 24,8 C 16,2 C 58 % 95 % 1015,6 hPa 0,0 l/m 3,1 km/h (1 Bft) S 0,12 h 0,9 UV-I 112 W/m 15,4 C 16,1 C 8,8 km/h (2 Bft)
03.08.2016 10:00 24,9 C 17,0 C 58 % 93 % 1015,2 hPa 0,0 l/m 3,8 km/h (1 Bft) S 0,20 h 1,2 UV-I 118 W/m 15,8 C 16,9 C 8,7 km/h (2 Bft)
03.08.2016 11:00 24,8 C 17,8 C 58 % 90 % 1014,9 hPa 0,0 l/m 3,1 km/h (1 Bft) S 0,45 h 1,6 UV-I 150 W/m 16,2 C 17,7 C 9,0 km/h (2 Bft)
03.08.2016 12:00 24,9 C 18,9 C 58 % 87 % 1014,6 hPa 0,0 l/m 1,7 km/h (1 Bft) W-SW 0,72 h 2,0 UV-I 191 W/m 16,7 C 18,9 C 5,4 km/h (1 Bft)
03.08.2016 13:00 25,1 C 19,9 C 59 % 82 % 1014,4 hPa 0,0 l/m 4,8 km/h (1 Bft) W-SW 0,77 h 2,8 UV-I 253 W/m 16,7 C 19,7 C 11,8 km/h (2 Bft)
03.08.2016 14:00 25,0 C 20,2 C 59 % 79 % 1014,3 hPa 0,0 l/m 3,6 km/h (1 Bft) SW 0,73 h 2,6 UV-I 232 W/m 16,5 C 20,1 C 9,6 km/h (2 Bft)
03.08.2016 15:00 25,0 C 19,7 C 59 % 82 % 1014,4 hPa 0,0 l/m 4,4 km/h (1 Bft) W-SW 0,10 h 1,1 UV-I 108 W/m 16,5 C 19,5 C 10,2 km/h (2 Bft)
03.08.2016 16:00 24,8 C 19,2 C 60 % 85 % 1014,1 hPa 0,0 l/m 0,6 km/h (0 Bft) W 0,08 h 1,1 UV-I 120 W/m 16,6 C 19,2 C 1,8 km/h (1 Bft)
03.08.2016 17:00 24,7 C 20,3 C 60 % 82 % 1013,6 hPa 0,0 l/m 0,1 km/h (0 Bft) S 0,38 h 1,1 UV-I 146 W/m 17,1 C 20,3 C 0,6 km/h (0 Bft)
03.08.2016 18:00 24,7 C 20,9 C 60 % 80 % 1013,3 hPa 0,0 l/m 0,1 km/h (0 Bft) S 0,17 h 0,7 UV-I 118 W/m 17,2 C 20,9 C 0,7 km/h (0 Bft)
03.08.2016 19:00 24,8 C 20,7 C 60 % 79 % 1013,0 hPa 0,0 l/m 0,2 km/h (0 Bft) S-SW 0,00 h 0,5 UV-I 38 W/m 17,0 C 20,7 C 0,5 km/h (0 Bft)
03.08.2016 20:00 24,9 C 20,0 C 60 % 84 % 1013,1 hPa 0,0 l/m 0,0 km/h (0 Bft) N 0,00 h 0,0 UV-I 21 W/m 17,2 C 20,0 C 0,0 km/h (0 Bft)
03.08.2016 21:00 25,1 C 19,4 C 61 % 88 % 1013,5 hPa 0,0 l/m 0,0 km/h (0 Bft) N 0,00 h 0,0 UV-I 0 W/m 17,3 C 19,4 C 0,0 km/h (0 Bft)
03.08.2016 22:00 25,2 C 19,0 C 61 % 89 % 1013,7 hPa 0,0 l/m 0,0 km/h (0 Bft) N 0,00 h 0,0 UV-I 0 W/m 17,2 C 19,0 C 0,0 km/h (0 Bft)
03.08.2016 23:00 25,2 C 18,8 C 61 % 87 % 1013,4 hPa 0,0 l/m 0,1 km/h (0 Bft) S 0,00 h 0,0 UV-I 0 W/m 16,6 C 18,8 C 0,5 km/h (0 Bft)
04.08.2016 00:00 25,1 C 18,0 C 61 % 88 % 1013,2 hPa 0,0 l/m 0,0 km/h (0 Bft) SW 0,00 h 0,0 UV-I 0 W/m 16,0 C 18,0 C 0,5 km/h (0 Bft)
04.08.2016 01:00 24,9 C 17,3 C 61 % 90 % 1013,2 hPa 0,0 l/m 0,2 km/h (0 Bft) N 0,00 h 0,0 UV-I 0 W/m 15,7 C 17,3 C 0,9 km/h (0 Bft)
04.08.2016 02:00 24,8 C 16,9 C 61 % 91 % 1013,2 hPa 0,0 l/m 0,0 km/h (0 Bft) N 0,00 h 0,0 UV-I 0 W/m 15,3 C 16,9 C 0,0 km/h (0 Bft)
04.08.2016 03:00 24,9 C 15,9 C 62 % 92 % 1013,1 hPa 0,0 l/m 0,0 km/h (0 Bft) N 0,00 h 0,0 UV-I 0 W/m 14,6 C 15,9 C 0,0 km/h (0 Bft)
04.08.2016 04:00 25,0 C 14,8 C 62 % 92 % 1013,0 hPa 0,0 l/m 0,0 km/h (0 Bft) N 0,00 h 0,0 UV-I 0 W/m 13,5 C 14,8 C 0,0 km/h (0 Bft)
04.08.2016 05:00 25,0 C 13,9 C 62 % 93 % 1013,1 hPa 0,0 l/m 0,0 km/h (0 Bft) N 0,00 h 0,0 UV-I 7 W/m 12,7 C 13,9 C 0,0 km/h (0 Bft)
04.08.2016 06:00 25,0 C 13,6 C 62 % 94 % 1013,1 hPa 0,0 l/m 0,0 km/h (0 Bft) N 0,00 h 0,0 UV-I 21 W/m 12,7 C 13,6 C 0,0 km/h (0 Bft)
04.08.2016 07:00 25,0 C 15,0 C 62 % 95 % 1013,3 hPa 0,0 l/m 0,0 km/h (0 Bft) N 0,50 h 0,6 UV-I 137 W/m 14,2 C 15,0 C 0,0 km/h (0 Bft)
04.08.2016 08:00 24,9 C 18,9 C 62 % 87 % 1013,0 hPa 0,0 l/m 0,1 km/h (0 Bft) SO 1,00 h 1,3 UV-I 374 W/m 16,7 C 18,9 C 0,2 km/h (0 Bft)
04.08.2016 09:00 24,9 C 22,0 C 62 % 75 % 1012,8 hPa 0,0 l/m 2,6 km/h (1 Bft) S 1,00 h 2,5 UV-I 545 W/m 17,5 C 21,9 C 5,9 km/h (2 Bft)
04.08.2016 10:00 25,0 C 24,1 C 61 % 66 % 1012,5 hPa 0,0 l/m 6,0 km/h (2 Bft) S 1,00 h 4,0 UV-I 706 W/m 17,2 C 23,8 C 12,6 km/h (3 Bft)
04.08.2016 11:00 25,0 C 24,8 C 60 % 61 % 1012,4 hPa 0,0 l/m 5,3 km/h (1 Bft) S 1,00 h 4,8 UV-I 657 W/m 16,8 C 24,6 C 10,8 km/h (2 Bft)
04.08.2016 12:00 25,2 C 25,7 C 58 % 53 % 1012,0 hPa 0,0 l/m 6,2 km/h (2 Bft) S 1,00 h 5,1 UV-I 652 W/m 15,4 C 25,4 C 12,3 km/h (3 Bft)
04.08.2016 13:00 25,5 C 26,7 C 57 % 51 % 1011,7 hPa 0,0 l/m 4,2 km/h (1 Bft) SW 1,00 h 5,5 UV-I 731 W/m 15,6 C 26,6 C 9,5 km/h (2 Bft)
04.08.2016 14:00 25,5 C 27,2 C 57 % 48 % 1011,5 hPa 0,0 l/m 6,4 km/h (2 Bft) W-SW 1,00 h 4,7 UV-I 645 W/m 15,3 C 26,9 C 12,9 km/h (3 Bft)
04.08.2016 15:00 25,2 C 26,9 C 57 % 47 % 1011,2 hPa 0,0 l/m 2,8 km/h (1 Bft) S 1,00 h 3,6 UV-I 532 W/m 14,7 C 26,9 C 6,6 km/h (2 Bft)
04.08.2016 16:00 25,2 C 26,7 C 57 % 46 % 1010,6 hPa 0,0 l/m 2,5 km/h (1 Bft) S 1,00 h 2,5 UV-I 393 W/m 14,2 C 26,7 C 5,5 km/h (1 Bft)
04.08.2016 17:00 25,3 C 26,4 C 55 % 47 % 1009,9 hPa 0,0 l/m 1,5 km/h (1 Bft) S 1,00 h 1,5 UV-I 270 W/m 14,1 C 26,4 C 3,8 km/h (1 Bft)
04.08.2016 18:00 25,5 C 25,7 C 55 % 51 % 1009,5 hPa 0,0 l/m 0,8 km/h (0 Bft) NW 0,23 h 0,7 UV-I 141 W/m 14,9 C 25,7 C 2,0 km/h (1 Bft)
04.08.2016 19:00 25,6 C 24,3 C 55 % 60 % 1009,2 hPa 0,0 l/m 2,5 km/h (1 Bft) N 0,00 h 0,0 UV-I 74 W/m 16,0 C 24,3 C 5,4 km/h (1 Bft)
04.08.2016 20:00 25,4 C 23,0 C 56 % 61 % 1008,9 hPa 0,0 l/m 0,5 km/h (0 Bft) N 0,00 h 0,0 UV-I 22 W/m 15,1 C 23,0 C 2,1 km/h (1 Bft)
04.08.2016 21:00 25,4 C 21,9 C 56 % 67 % 1008,9 hPa 0,0 l/m 4,0 km/h (1 Bft) N 0,00 h 0,0 UV-I 0 W/m 15,4 C 21,7 C 8,9 km/h (2 Bft)
04.08.2016 22:00 25,6 C 20,8 C 57 % 68 % 1009,4 hPa 0,0 l/m 10,7 km/h (2 Bft) N 0,00 h 0,0 UV-I 0 W/m 14,7 C 19,3 C 19,5 km/h (3 Bft)
04.08.2016 23:00 25,6 C 19,2 C 56 % 69 % 1010,1 hPa 0,0 l/m 10,6 km/h (2 Bft) N-NW 0,00 h 0,0 UV-I 0 W/m 13,3 C 17,6 C 17,9 km/h (3 Bft)
05.08.2016 00:00 25,4 C 18,0 C 55 % 78 % 1010,2 hPa 0,0 l/m 5,8 km/h (2 Bft) NW 0,00 h 0,0 UV-I 0 W/m 14,1 C 17,3 C 12,7 km/h (3 Bft)
05.08.2016 01:00 25,3 C 16,4 C 56 % 88 % 1011,1 hPa 5,2 l/m 9,7 km/h (2 Bft) NW 0,00 h 0,0 UV-I 0 W/m 14,4 C 14,5 C 15,8 km/h (3 Bft)
05.08.2016 02:00 25,6 C 14,6 C 56 % 94 % 1011,8 hPa 5,2 l/m 3,7 km/h (1 Bft) N-NW 0,00 h 0,0 UV-I 0 W/m 13,6 C 14,2 C 8,0 km/h (2 Bft)
05.08.2016 03:00 25,7 C 14,3 C 56 % 96 % 1010,9 hPa 2,0 l/m 0,0 km/h (0 Bft) W-NW 0,00 h 0,0 UV-I 0 W/m 13,7 C 14,3 C 0,4 km/h (0 Bft)
05.08.2016 04:00 25,8 C 14,3 C 57 % 96 % 1010,5 hPa 0,4 l/m 0,0 km/h (0 Bft) N 0,00 h 0,0 UV-I 0 W/m 13,7 C 14,3 C 0,2 km/h (0 Bft)
05.08.2016 05:00 25,8 C 14,3 C 57 % 96 % 1010,9 hPa 0,2 l/m 0,0 km/h (0 Bft) W-NW 0,00 h 0,0 UV-I 0 W/m 13,7 C 14,3 C 0,5 km/h (0 Bft)
05.08.2016 06:00 25,7 C 14,4 C 57 % 97 % 1011,2 hPa 0,2 l/m 1,3 km/h (1 Bft) NW 0,00 h 0,0 UV-I 6 W/m 13,9 C 14,3 C 3,2 km/h (1 Bft)
05.08.2016 07:00 25,3 C 14,2 C 57 % 96 % 1011,8 hPa 0,0 l/m 1,7 km/h (1 Bft) W-NW 0,00 h 0,0 UV-I 35 W/m 13,6 C 14,2 C 5,1 km/h (1 Bft)
05.08.2016 08:00 25,6 C 14,3 C 57 % 96 % 1012,3 hPa 0,0 l/m 2,0 km/h (1 Bft) NW 0,00 h 0,7 UV-I 95 W/m 13,6 C 14,3 C 6,0 km/h (2 Bft)
05.08.2016 09:00 25,5 C 15,0 C 57 % 92 % 1012,8 hPa 0,0 l/m 2,6 km/h (1 Bft) NW 0,97 h 1,5 UV-I 251 W/m 13,8 C 14,9 C 5,4 km/h (1 Bft)
05.08.2016 10:00 25,5 C 15,8 C 57 % 87 % 1013,6 hPa 0,0 l/m 4,2 km/h (1 Bft) NW 1,00 h 2,0 UV-I 255 W/m 13,7 C 15,6 C 9,3 km/h (2 Bft)
05.08.2016 11:00 25,3 C 17,1 C 56 % 81 % 1013,9 hPa 0,0 l/m 4,3 km/h (1 Bft) NW 1,00 h 3,1 UV-I 389 W/m 13,9 C 16,9 C 10,0 km/h (2 Bft)
05.08.2016 12:00 25,2 C 17,7 C 56 % 78 % 1014,6 hPa 0,0 l/m 3,6 km/h (1 Bft) NW 0,98 h 2,7 UV-I 302 W/m 13,9 C 17,6 C 8,4 km/h (2 Bft)
05.08.2016 13:00 25,2 C 17,9 C 56 % 75 % 1015,2 hPa 0,0 l/m 5,6 km/h (1 Bft) NW 1,02 h 2,6 UV-I 298 W/m 13,5 C 17,6 C 10,8 km/h (2 Bft)
05.08.2016 14:00 25,1 C 19,0 C 56 % 69 % 1015,5 hPa 0,0 l/m 6,3 km/h (2 Bft) NW 1,00 h 3,8 UV-I 476 W/m 13,1 C 18,4 C 13,3 km/h (3 Bft)
05.08.2016 15:00 25,1 C 19,5 C 56 % 66 % 1016,2 hPa 0,0 l/m 4,6 km/h (1 Bft) NW 1,00 h 3,2 UV-I 403 W/m 12,9 C 19,3 C 10,5 km/h (2 Bft)
05.08.2016 16:00 25,0 C 19,1 C 56 % 67 % 1016,7 hPa 0,0 l/m 3,4 km/h (1 Bft) NW 0,93 h 1,7 UV-I 229 W/m 12,9 C 19,0 C 8,3 km/h (2 Bft)
05.08.2016 17:00 25,1 C 18,6 C 56 % 69 % 1017,0 hPa 0,0 l/m 2,8 km/h (1 Bft) NW 0,22 h 0,9 UV-I 118 W/m 12,7 C 18,6 C 6,9 km/h (2 Bft)
05.08.2016 18:00 25,3 C 18,2 C 56 % 73 % 1017,3 hPa 0,0 l/m 1,0 km/h (0 Bft) W-NW 0,00 h 0,6 UV-I 98 W/m 13,4 C 18,2 C 3,2 km/h (1 Bft)
05.08.2016 19:00 25,4 C 17,9 C 56 % 74 % 1018,0 hPa 0,0 l/m 1,3 km/h (1 Bft) W-NW 0,00 h 0,0 UV-I 65 W/m 13,1 C 17,9 C 4,0 km/h (1 Bft)
05.08.2016 20:00 25,3 C 16,9 C 55 % 79 % 1018,6 hPa 0,0 l/m 0,0 km/h (0 Bft) W-SW 0,00 h 0,0 UV-I 22 W/m 13,2 C 16,9 C 0,1 km/h (0 Bft)
05.08.2016 21:00 25,2 C 16,4 C 55 % 82 % 1019,5 hPa 0,0 l/m 0,1 km/h (0 Bft) W-SW 0,00 h 0,0 UV-I 0 W/m 13,3 C 16,4 C 0,3 km/h (0 Bft)
05.08.2016 22:00 25,5 C 16,2 C 56 % 83 % 1020,1 hPa 0,0 l/m 1,5 km/h (1 Bft) W 0,00 h 0,0 UV-I 0 W/m 13,4 C 16,2 C 4,4 km/h (1 Bft)
05.08.2016 23:00 25,4 C 15,8 C 56 % 85 % 1020,3 hPa 0,0 l/m 0,0 km/h (0 Bft) N 0,00 h 0,0 UV-I 0 W/m 13,2 C 15,8 C 0,3 km/h (0 Bft)
06.08.2016 00:00 25,2 C 15,6 C 56 % 85 % 1020,6 hPa 0,0 l/m 0,0 km/h (0 Bft) N 0,00 h 0,0 UV-I 0 W/m 13,1 C 15,6 C 0,2 km/h (0 Bft)
06.08.2016 01:00 25,4 C 15,6 C 56 % 85 % 1020,9 hPa 0,0 l/m 0,0 km/h (0 Bft) N 0,00 h 0,0 UV-I 0 W/m 13,1 C 15,6 C 0,0 km/h (0 Bft)
06.08.2016 02:00 25,7 C 15,6 C 56 % 85 % 1021,2 hPa 0,0 l/m 0,0 km/h (0 Bft) N 0,00 h 0,0 UV-I 0 W/m 13,1 C 15,6 C 0,0 km/h (0 Bft)
06.08.2016 03:00 25,8 C 13,1 C 57 % 92 % 1021,6 hPa 0,0 l/m 0,0 km/h (0 Bft) N 0,00 h 0,0 UV-I 0 W/m 11,8 C 13,1 C 0,0 km/h (0 Bft)
06.08.2016 04:00 25,8 C 12,0 C 57 % 95 % 1022,1 hPa 0,0 l/m 0,0 km/h (0 Bft) N 0,00 h 0,0 UV-I 0 W/m 11,2 C 12,0 C 0,0 km/h (0 Bft)
06.08.2016 05:00 25,8 C 11,5 C 58 % 95 % 1022,3 hPa 0,0 l/m 0,0 km/h (0 Bft) N 0,00 h 0,0 UV-I 0 W/m 10,8 C 11,5 C 0,0 km/h (0 Bft)
06.08.2016 06:00 25,8 C 11,0 C 58 % 95 % 1022,6 hPa 0,0 l/m 0,0 km/h (0 Bft) N 0,00 h 0,0 UV-I 21 W/m 10,3 C 11,0 C 0,0 km/h (0 Bft)
06.08.2016 07:00 25,7 C 11,7 C 58 % 96 % 1022,9 hPa 0,0 l/m 0,0 km/h (0 Bft) N 0,18 h 0,6 UV-I 77 W/m 11,0 C 11,7 C 0,0 km/h (0 Bft)
06.08.2016 08:00 25,5 C 14,6 C 57 % 91 % 1023,2 hPa 0,0 l/m 0,1 km/h (0 Bft) S 1,00 h 1,2 UV-I 335 W/m 13,2 C 14,6 C 0,2 km/h (0 Bft)
06.08.2016 09:00 25,5 C 17,2 C 57 % 81 % 1023,4 hPa 0,0 l/m 0,9 km/h (0 Bft) W 0,95 h 2,1 UV-I 457 W/m 13,9 C 17,2 C 1,9 km/h (1 Bft)
06.08.2016 10:00 25,5 C 19,1 C 57 % 73 % 1023,6 hPa 0,0 l/m 0,9 km/h (0 Bft) S 1,00 h 3,3 UV-I 596 W/m 14,3 C 19,1 C 2,9 km/h (1 Bft)
06.08.2016 11:00 25,6 C 18,4 C 56 % 77 % 1023,8 hPa 0,2 l/m 2,8 km/h (1 Bft) N 0,48 h 1,7 UV-I 191 W/m 14,2 C 18,2 C 5,1 km/h (1 Bft)
06.08.2016 12:00 25,4 C 18,2 C 56 % 79 % 1024,0 hPa 0,0 l/m 1,0 km/h (0 Bft) N-NO 0,73 h 2,0 UV-I 220 W/m 14,6 C 18,2 C 2,2 km/h (1 Bft)
06.08.2016 13:00 25,0 C 19,0 C 55 % 73 % 1024,1 hPa 0,0 l/m 5,4 km/h (1 Bft) W-SW 0,87 h 2,9 UV-I 317 W/m 13,9 C 18,5 C 8,2 km/h (2 Bft)
06.08.2016 14:00 25,1 C 19,9 C 55 % 65 % 1024,1 hPa 0,0 l/m 5,2 km/h (1 Bft) W 0,90 h 3,8 UV-I 441 W/m 13,2 C 19,6 C 9,7 km/h (2 Bft)
06.08.2016 15:00 24,9 C 20,1 C 54 % 66 % 1024,2 hPa 0,0 l/m 5,5 km/h (1 Bft) NW 0,60 h 2,4 UV-I 222 W/m 13,4 C 19,8 C 11,2 km/h (2 Bft)
06.08.2016 16:00 24,9 C 18,4 C 54 % 72 % 1024,5 hPa 0,0 l/m 2,9 km/h (1 Bft) W-NW 0,25 h 1,2 UV-I 122 W/m 13,2 C 18,3 C 6,9 km/h (2 Bft)
06.08.2016 17:00 24,9 C 19,2 C 54 % 67 % 1024,5 hPa 0,0 l/m 2,1 km/h (1 Bft) W-SW 0,70 h 1,5 UV-I 257 W/m 13,0 C 19,2 C 5,0 km/h (1 Bft)
06.08.2016 18:00 25,0 C 19,8 C 54 % 64 % 1024,5 hPa 0,0 l/m 5,1 km/h (1 Bft) W 0,17 h 1,0 UV-I 91 W/m 12,7 C 19,6 C 10,0 km/h (2 Bft)
06.08.2016 19:00 25,2 C 19,3 C 54 % 59 % 1024,7 hPa 0,0 l/m 3,0 km/h (1 Bft) W 0,00 h 0,0 UV-I 26 W/m 11,0 C 19,3 C 7,0 km/h (2 Bft)
06.08.2016 20:00 25,0 C 18,0 C 54 % 67 % 1025,1 hPa 0,0 l/m 0,5 km/h (0 Bft) W-NW 0,00 h 0,0 UV-I 11 W/m 11,7 C 18,0 C 1,7 km/h (1 Bft)
06.08.2016 21:00 25,3 C 16,3 C 55 % 77 % 1026,1 hPa 0,0 l/m 0,0 km/h (0 Bft) N 0,00 h 0,0 UV-I 0 W/m 12,2 C 16,3 C 0,0 km/h (0 Bft)
06.08.2016 22:00 25,5 C 14,9 C 55 % 84 % 1026,8 hPa 0,0 l/m 0,0 km/h (0 Bft) N 0,00 h 0,0 UV-I 0 W/m 12,1 C 14,9 C 0,0 km/h (0 Bft)
06.08.2016 23:00 25,3 C 13,6 C 56 % 89 % 1027,1 hPa 0,0 l/m 0,0 km/h (0 Bft) N 0,00 h 0,0 UV-I 0 W/m 11,8 C 13,6 C 0,0 km/h (0 Bft)
07.08.2016 00:00 25,1 C 12,2 C 56 % 92 % 1027,5 hPa 0,0 l/m 0,0 km/h (0 Bft) N 0,00 h 0,0 UV-I 0 W/m 11,0 C 12,2 C 0,0 km/h (0 Bft)
07.08.2016 01:00 25,1 C 11,4 C 56 % 93 % 1027,8 hPa 0,0 l/m 0,0 km/h (0 Bft) N 0,00 h 0,0 UV-I 0 W/m 10,3 C 11,4 C 0,0 km/h (0 Bft)
07.08.2016 02:00 25,0 C 10,8 C 56 % 93 % 1027,7 hPa 0,0 l/m 0,0 km/h (0 Bft) N 0,00 h 0,0 UV-I 0 W/m 9,8 C 10,8 C 0,0 km/h (0 Bft)
07.08.2016 03:00 24,9 C 10,2 C 57 % 93 % 1027,6 hPa 0,0 l/m 0,0 km/h (0 Bft) N 0,00 h 0,0 UV-I 0 W/m 9,1 C 10,2 C 0,0 km/h (0 Bft)
07.08.2016 04:00 24,9 C 9,8 C 57 % 94 % 1027,5 hPa 0,0 l/m 0,0 km/h (0 Bft) N 0,00 h 0,0 UV-I 0 W/m 8,8 C 9,8 C 0,0 km/h (0 Bft)
07.08.2016 05:00 24,9 C 9,3 C 57 % 94 % 1027,7 hPa 0,0 l/m 0,0 km/h (0 Bft) N 0,00 h 0,0 UV-I 5 W/m 8,4 C 9,3 C 0,0 km/h (0 Bft)
07.08.2016 06:00 24,8 C 8,8 C 57 % 94 % 1028,0 hPa 0,0 l/m 0,0 km/h (0 Bft) N 0,00 h 0,0 UV-I 14 W/m 8,0 C 8,8 C 0,0 km/h (0 Bft)
07.08.2016 07:00 24,8 C 10,4 C 57 % 95 % 1028,1 hPa 0,0 l/m 0,0 km/h (0 Bft) N 0,58 h 0,6 UV-I 143 W/m 9,6 C 10,4 C 0,0 km/h (0 Bft)
07.08.2016 08:00 24,9 C 14,8 C 58 % 86 % 1028,3 hPa 0,0 l/m 0,2 km/h (0 Bft) S 1,00 h 1,3 UV-I 358 W/m 12,5 C 14,8 C 0,6 km/h (0 Bft)
07.08.2016 09:00 25,1 C 18,3 C 58 % 73 % 1028,2 hPa 0,0 l/m 3,9 km/h (1 Bft) W-SW 1,00 h 2,5 UV-I 521 W/m 13,3 C 18,1 C 8,4 km/h (2 Bft)
07.08.2016 10:00 25,2 C 20,2 C 57 % 66 % 1028,1 hPa 0,0 l/m 6,0 km/h (2 Bft) W 1,00 h 3,9 UV-I 668 W/m 13,6 C 19,8 C 10,5 km/h (2 Bft)
07.08.2016 11:00 25,0 C 21,1 C 55 % 59 % 1027,9 hPa 0,0 l/m 8,4 km/h (2 Bft) W 0,97 h 4,9 UV-I 658 W/m 12,9 C 20,3 C 15,7 km/h (3 Bft)
07.08.2016 12:00 24,7 C 22,2 C 52 % 56 % 1027,5 hPa 0,0 l/m 5,4 km/h (1 Bft) W-SW 0,88 h 6,0 UV-I 814 W/m 13,0 C 21,9 C 10,9 km/h (2 Bft)
07.08.2016 13:00 24,7 C 23,3 C 52 % 52 % 1027,0 hPa 0,0 l/m 5,7 km/h (1 Bft) W-SW 1,00 h 6,0 UV-I 748 W/m 12,8 C 23,0 C 12,2 km/h (2 Bft)
07.08.2016 14:00 24,8 C 23,7 C 51 % 48 % 1026,5 hPa 0,0 l/m 5,8 km/h (2 Bft) W-SW 1,00 h 5,7 UV-I 751 W/m 12,1 C 23,4 C 10,8 km/h (2 Bft)
07.08.2016 15:00 24,9 C 24,1 C 51 % 47 % 1025,9 hPa 0,0 l/m 5,5 km/h (1 Bft) W-SW 1,00 h 4,6 UV-I 695 W/m 12,2 C 23,9 C 11,5 km/h (2 Bft)
07.08.2016 16:00 25,1 C 24,1 C 50 % 47 % 1025,3 hPa 0,0 l/m 5,5 km/h (1 Bft) W-SW 1,00 h 3,2 UV-I 575 W/m 12,0 C 23,9 C 11,3 km/h (2 Bft)
07.08.2016 17:00 25,3 C 23,9 C 51 % 47 % 1024,8 hPa 0,0 l/m 4,0 km/h (1 Bft) W-SW 1,00 h 1,9 UV-I 350 W/m 12,0 C 23,8 C 8,8 km/h (2 Bft)
07.08.2016 18:00 25,2 C 23,4 C 50 % 49 % 1024,3 hPa 0,0 l/m 4,4 km/h (1 Bft) W-SW 0,22 h 1,2 UV-I 82 W/m 12,1 C 23,3 C 8,9 km/h (2 Bft)
07.08.2016 19:00 25,2 C 22,4 C 50 % 53 % 1023,9 hPa 0,0 l/m 2,4 km/h (1 Bft) W 0,00 h 0,0 UV-I 23 W/m 12,4 C 22,3 C 4,2 km/h (1 Bft)
07.08.2016 20:00 25,0 C 20,5 C 51 % 63 % 1023,8 hPa 0,0 l/m 0,0 km/h (0 Bft) N 0,00 h 0,0 UV-I 12 W/m 13,1 C 20,5 C 0,0 km/h (0 Bft)
07.08.2016 21:00 25,0 C 18,0 C 52 % 75 % 1024,0 hPa 0,0 l/m 0,0 km/h (0 Bft) N 0,00 h 0,0 UV-I 0 W/m 13,5 C 18,0 C 0,0 km/h (0 Bft)
07.08.2016 22:00 25,2 C 16,4 C 52 % 83 % 1023,8 hPa 0,0 l/m 0,0 km/h (0 Bft) N 0,00 h 0,0 UV-I 0 W/m 13,5 C 16,4 C 0,0 km/h (0 Bft)
07.08.2016 23:00 25,1 C 15,0 C 53 % 88 % 1023,5 hPa 0,0 l/m 0,0 km/h (0 Bft) N 0,00 h 0,0 UV-I 0 W/m 13,0 C 15,0 C 0,0 km/h (0 Bft)
Min-Datum _ 02.08.16 07.08.16 01.08.16 01.08.16 04.08.16 - 01.08.16 - - - - 01.08.16 07.08.16 01.08.16
_ Min-Zeit 10:06 06:14 15:13 16:47 21:25 - 00:01 - - - - 17:52 06:14 00:05
Minimum _ 24,5 C 8,8 C 47 % 43 % 1008,7 hPa - 0,0 km/h (0 Bft) - - - - 7,6 C 8,8 C 0,0 km/h (0 Bft)
Max-Datum _ 01.08.16 04.08.16 01.08.16 03.08.16 07.08.16 05.08.16 04.08.16 - 02.08.16 07.08.16 01.08.16 04.08.16 04.08.16 04.08.16
_ Max-Zeit 02:18 14:44 00:00 05:21 08:39 01:59 22:35 - 10:24 12:47 12:35 11:26 14:45 22:35
Maximum _ 26,1 C 27,7 C 62 % 97 % 1028,4 hPa 5,2 l/m 22,5 km/h
N (4 Bft)
- 0,08 h 6,9 UV-I 1035 W/m 18,5 C 27,7 C 32,2 km/h
N-NW (5 Bft)
Durchschnitt _ 25,1 C 17,0 C 56 % 80 % 1018,0 hPa #15,0 l/m 2,1 km/h (1 Bft) W-SW #54:08 h 2,3 UV-I 254 W/m 13,1 C 16,8 C 4,8 km/h (1 Bft)